Location: Unspecified
(43.8044°N, 11.0278°E)
Time: 05:06:30
(UTC+02:00)

Cosmos 1674 - Visible Passes

Search period start: 26 July 2014 00:00
Search period end: 05 August 2014 00:00
Orbit: 516 x 543 km, 82.5° (Epoch: 25 July)

Date Brightness Start Highest point End Pass type
(mag) Time Alt. Az. Time Alt. Az. Time Alt. Az.
26 Jul 5.5 04:23:18 10° NNE 04:26:13 20° ENE 04:29:06 10° ESE visible
27 Jul 5.5 04:12:44 10° NNE 04:15:31 19° ENE 04:18:17 10° ESE visible
28 Jul 5.6 04:02:10 10° NNE 04:04:49 17° ENE 04:07:26 10° ESE visible
29 Jul 5.6 03:51:38 10° NNE 03:54:07 16° ENE 03:56:35 10° ESE visible
29 Jul 3.4 05:26:43 10° NNW 05:30:17 36° W 05:33:48 10° SSW visible
30 Jul 5.6 03:41:06 10° NNE 03:43:25 15° ENE 03:45:42 10° ESE visible
30 Jul 3.2 05:16:00 10° NNW 05:19:37 39° W 05:23:11 10° SSW visible
31 Jul 5.6 03:30:35 10° NE 03:32:42 14° ENE 03:34:48 10° ESE visible
31 Jul 3.1 05:05:17 10° NNW 05:08:57 42° W 05:12:34 10° SSW visible
01 Aug 5.6 03:20:06 10° NE 03:21:59 13° ENE 03:23:52 10° E visible
01 Aug 3.0 04:54:35 10° NNW 04:58:17 46° W 05:01:56 10° SSW visible
02 Aug 5.7 03:09:39 10° NE 03:11:16 12° ENE 03:12:53 10° E visible
02 Aug 2.9 04:43:52 10° NNW 04:47:37 50° W 04:50:56 12° SSW visible
03 Aug 5.7 02:59:16 10° NE 03:00:33 11° ENE 03:01:50 10° E visible
03 Aug 2.8 04:33:10 10° NNW 04:36:56 54° W 04:39:32 19° SSW visible
04 Aug 5.8 02:49:01 10° NE 02:49:50 11° ENE 02:50:39 10° E visible
04 Aug 2.7 04:22:28 10° NNW 04:26:16 59° W 04:28:13 26° SSW visible
